Colemans, Ontario

3:29 PM EST on December 02, 2016 (GMT -0500)
Colemans

Weather History for 71262 - April, 2013

Change the Weather History Date:

Wednesday, April 10, 2013

  Actual Average Record
Temperature  
Mean Temperature 42 °F -  
Max Temperature 44 °F - - ()
Min Temperature 39 °F - - ()
Degree Days  
Heating Degree Days 24    
Moisture  
Dew Point 40 °F    
Average Humidity 95    
Maximum Humidity 100    
Minimum Humidity 87    
Precipitation  
Precipitation 0.00 in - - ()
Sea Level Pressure  
Sea Level Pressure 29.98 in    
Wind  
Wind Speed 10 mph ()    
Max Wind Speed 24 mph    
Max Gust Speed 33 mph    
Visibility 5.8 miles    
Events Rain , Thunderstorm    
T = Trace of Precipitation, MM = Missing Value Source: Averaged Metar Reports

Daily Weather History Graph

Daily Weather History Graph

Search for Another Location

Airport or City:

Trip Planner

Search our weather history database for the weather conditions in past years. The results will help you decide how hot, cold, wet, or windy it might be!

Date:

Astronomy

Apr. 10, 2013 Rise Set
Actual Time 6:42 AM EDT 7:53 PM EDT
Civil Twilight 6:13 AM EDT 8:23 PM EDT
Nautical Twilight 5:38 AM EDT 8:58 PM EDT
Astronomical Twilight 5:01 AM EDT 9:35 PM EDT
Moon 6:36 AM EDT (4/10) 8:29 PM EDT (4/10)
Length of Visible Light 14h 09m
Length of Day
13h 11m
New Moon, 0% of the Moon is Illuminated
Apr 10
New Moon
Apr 18
First Quarter
Apr 25
Full
May 2
Last Quarter
May 9
New

Hourly Weather History & Observations

Time (EDT) Temp. Windchill Dew Point Humidity Pressure Visibility Wind Dir Wind Speed Gust Speed Precip Events Conditions
7:00 AM 42.8 °F 39.3 °F 42.8 °F 100% 30.00 in 4.0 mi East 5.8 mph - N/A   Overcast
7:20 AM 42.8 °F 38.0 °F 42.8 °F 100% 30.00 in 2.5 mi ENE 8.1 mph - N/A   Overcast
8:00 AM 44.6 °F 40.2 °F 44.6 °F 100% 30.01 in 2.5 mi ENE 8.1 mph - N/A   Overcast
9:00 AM 42.8 °F 37.0 °F 41.0 °F 93% 30.02 in 2.5 mi NE 10.4 mph 17.3 mph N/A   Overcast
9:19 AM 42.8 °F 37.0 °F 42.8 °F 100% 30.01 in 3.0 mi NE 10.4 mph - N/A   Overcast
9:40 AM 42.8 °F 36.6 °F 41.0 °F 93% 30.01 in 4.0 mi ENE 11.5 mph - N/A Rain Light Rain Showers
10:00 AM 42.8 °F 37.0 °F 41.0 °F 93% 30.03 in 3.0 mi ENE 10.4 mph - N/A Rain Light Rain Showers
11:00 AM 41.0 °F 33.5 °F 41.0 °F 100% 30.04 in 4.0 mi NE 13.8 mph - N/A Rain Light Rain Showers
11:53 AM 42.8 °F 36.2 °F 41.0 °F 93% 29.99 in 5.0 mi East 12.7 mph - N/A Rain Light Rain Showers
12:00 PM 42.8 °F 36.2 °F 41.0 °F 93% 29.99 in 5.0 mi ENE 12.7 mph - N/A Rain Light Rain Showers
12:41 PM 42.8 °F 36.2 °F 41.0 °F 93% 29.97 in 8.0 mi ENE 12.7 mph - N/A   Overcast
1:00 PM 42.8 °F 35.8 °F 41.0 °F 93% 29.95 in 8.0 mi ENE 13.8 mph - N/A   Overcast
2:00 PM 41.0 °F 33.5 °F 39.2 °F 93% 29.95 in 7.0 mi NE 13.8 mph - N/A   Overcast
2:08 PM 41.0 °F 33.5 °F 39.2 °F 93% 29.96 in 8.0 mi NNE 13.8 mph - N/A Rain Light Rain Showers
3:00 PM 41.0 °F 33.5 °F 39.2 °F 93% 29.91 in 5.0 mi ENE 13.8 mph 23.0 mph N/A Rain , Thunderstorm Light Thunderstorms and Rain
3:10 PM 39.2 °F 28.5 °F 39.2 °F 100% 30.06 in 1.0 mi NNW 24.2 mph - N/A Rain , Thunderstorm Heavy Thunderstorms and Rain
3:19 PM 39.2 °F 29.3 °F 37.4 °F 93% 29.97 in 2.0 mi NE 20.7 mph 28.8 mph N/A Rain , Thunderstorm Light Thunderstorms and Rain
3:36 PM 39.2 °F 30.8 °F 39.2 °F 100% 29.96 in 4.0 mi NE 15.0 mph 23.0 mph N/A Rain Light Rain Showers
4:00 PM 39.2 °F 30.8 °F 39.2 °F 100% 29.89 in 6.0 mi NE 15.0 mph 33.4 mph N/A Rain Light Rain Showers
4:29 PM 41.0 °F 32.2 °F 39.2 °F 93% 29.92 in 7.0 mi ENE 18.4 mph 28.8 mph N/A   Overcast
5:00 PM 41.0 °F 33.1 °F 39.2 °F 93% 29.95 in 8.0 mi ENE 15.0 mph - N/A   Overcast
6:00 PM 41.0 °F 33.9 °F 39.2 °F 93% 29.99 in 8.0 mi NE 12.7 mph - N/A   Overcast
6:38 PM 41.0 °F 33.9 °F 39.2 °F 93% 29.98 in 8.0 mi NE 12.7 mph - N/A   Overcast
6:55 PM 41.0 °F 33.9 °F 39.2 °F 93% 29.98 in 8.0 mi NE 12.7 mph - N/A   Overcast
7:00 PM 41.0 °F 34.3 °F 39.2 °F 93% 29.99 in 8.0 mi NNE 11.5 mph - N/A   Overcast
8:00 PM 41.0 °F 33.5 °F 39.2 °F 93% 29.97 in 10.0 mi NE 13.8 mph - N/A   Overcast
9:00 PM 41.0 °F 36.4 °F 37.4 °F 87% 30.03 in 15.0 mi NE 6.9 mph - N/A   Overcast